| Date | Time | Temp. (oF) | Dew Point (oF) | Rel. Hum. (%) | Press. (in.) | Wind Dir. | Wind Speed (mph) | Hourly Rainfall (in.) |
|
|---|---|---|---|---|---|---|---|---|---|
| 1 | 03/29 | 00:00 | 46 | 45 | 100 | 29.35 | NW | 5 | 0.00 |
| 2 | 03/28 | 23:00 | 46 | 45 | 100 | 29.34 | NNE | 4 | 0.00 |
| 3 | 03/28 | 22:00 | 45 | 45 | 100 | 29.33 | N | 4 | 0.00 |
| 4 | 03/28 | 21:00 | 45 | 45 | 100 | 29.34 | N | 5 | 0.00 |
| 5 | 03/28 | 20:00 | 46 | 45 | 100 | 29.33 | ENE | 7 | 0.08 |
| 6 | 03/28 | 19:00 | 45 | 45 | 100 | 29.37 | NNE | 6 | 0.01 |
| 7 | 03/28 | 18:00 | 46 | 45 | 100 | 29.31 | NE | 7 | 0.00 |
| 8 | 03/28 | 17:00 | 46 | 45 | 100 | 29.32 | N | 19 | 0.01 |
| 9 | 03/28 | 16:00 | 44 | 44 | 100 | 29.39 | NE | 9 | 0.05 |
| 10 | 03/28 | 15:00 | 43 | 42 | 100 | 29.42 | NE | 10 | 0.12 |
| 11 | 03/28 | 14:00 | 43 | 42 | 100 | 29.46 | NE | 6 | 0.28 |
| 12 | 03/28 | 13:00 | 42 | 41 | 100 | 29.51 | ENE | 7 | 0.12 |
| 13 | 03/28 | 12:00 | 41 | 41 | 100 | 29.56 | ENE | 5 | 0.10 |
| 14 | 03/28 | 11:00 | 40 | 40 | 100 | 29.62 | NE | 7 | 0.01 |
| 15 | 03/28 | 10:00 | 39 | 39 | 100 | 29.66 | NNE | 6 | 0.01 |
| 16 | 03/28 | 09:00 | 38 | 37 | 100 | 29.68 | NNE | 7 | 0.00 |
| 17 | 03/28 | 08:00 | 38 | 37 | 100 | 29.73 | E | 4 | 0.01 |
| 18 | 03/28 | 07:00 | 37 | 36 | 100 | 29.76 | NE | 8 | 0.01 |
| 19 | 03/28 | 06:00 | 37 | 36 | 100 | 29.80 | NE | 5 | 0.02 |
| 20 | 03/28 | 05:00 | 36 | 36 | 100 | 29.82 | NNE | 6 | 0.01 |
| 21 | 03/28 | 04:00 | 37 | 36 | 100 | 29.85 | NE | 8 | 0.00 |
| 22 | 03/28 | 03:00 | 37 | 36 | 100 | 29.88 | ENE | 7 | 0.01 |
| 23 | 03/28 | 02:00 | 38 | 37 | 100 | 29.92 | NE | 9 | 0.03 |
| 24 | 03/28 | 01:00 | 38 | 37 | 100 | 29.97 | ENE | 7 | 0.05 |